{"data":{"norad_id":25153,"epoch":"2026-09-19T08:09:54.969120Z","epoch_age_seconds":111648,"freshness":"FRESH","line1":"1 25153U 98006B   26262.34021955 -.00000292  00000+0  00000+0 0  9998","line2":"2 25153   9.8989  52.2910 0004479 124.7993 249.6909  1.00273207104847","mean_motion":1.00273207,"eccentricity":0.0004479,"inclination_deg":9.8989,"raan_deg":52.291,"arg_perigee_deg":124.7993,"mean_anomaly_deg":249.6909,"bstar":0,"rev_number":10484,"period_min":1436.0765383718,"perigee_km":35767.310922784,"apogee_km":35805.081732579,"semimajor_km":42164.333327682,"source":"CELESTRAK","updated_at":"2026-09-20T09:00:35.116842Z"}}